Regional Weather Roundup
Issued by NWS

Home | Current Version | Previous Version | Graphics & Text | Print | Product List | Glossary On
Versions: 1 2 3 4 5 6 7 8 9 10 11 12 13 14 15 16 17 18 19 20 21 22 23 24 25 26 27 28 29 30 31 32 33 34 35 36 37 38 39 40 41 42 43 44 45 46 47 48 49 50
581
ASUS45 KSLC 290610
RWRUT

UTAH REGIONAL WEATHER ROUNDUP
NATIONAL WEATHER SERVICE SALT LAKE CITY UT
1200 AM MDT FRI APR 29 2016

UTZ001>011-023>025-290700-

NORTHERN UTAH

CITY           SKY/WX    TMP DP  RH WIND       PRES   REMARKS
BRIGHAM CITY   PTCLDY    47  27  45 E20G38    29.87S
HILL AFB       CLEAR     43  29  57 E17G26    29.85R
LOGAN          PTCLDY    45  28  51 E26G33    29.88S
OGDEN          PTCLDY    46  29  51 NE20      29.83F
PROVO AIRPORT  CLOUDY    46  32  57 N12       29.83S
SALT LAKE CITY CLOUDY    48  34  58 W5        29.83S
VERNAL         CLOUDY    40  31  70 N10       29.86S WCI  33
WENDOVER       MOCLDY    46  41  81 CALM      29.87R
HEBER CITY     CLOUDY    37  32  81 NE5       29.86S WCI  34

$$

UTZ012>022-026-027-290700-

SOUTHERN/CENTRAL UTAH

CITY           SKY/WX    TMP DP  RH WIND       PRES   REMARKS
BLANDING       PTCLDY    32  29  90 N5        29.90S WCI  28
BRYCE CANYON   CLOUDY    34  31  88 NW5       29.85S WCI  30
CEDAR CITY     CLOUDY    40  38  93 SW5       29.85R
DELTA          CLOUDY    43  41  93 S5        29.84S
MILFORD        LGT RAIN  43  41  93 CALM      29.85S
MOAB/CYNLANDS  CLOUDY    45  39  79 N10       29.80S
PRICE          CLOUDY    38  33  82 E10       29.84S WCI  31
ST GEORGE      MOCLDY    52  45  76 S6        29.85S

$$

REGIONAL REPORTS     COLORADO/ARIZONA

CITY           SKY/WX    TMP DP  RH WIND       PRES   REMARKS
CRAIG, CO      CLOUDY    37  34  89 SE8       29.91F WCI  31
GRAND JUNCTION CLOUDY    43  38  82 CALM      29.80S
RIFLE          RAIN      44  40  85 NW5       29.87R
MONTROSE       CLOUDY    44  37  76 SE12      29.83F
CORTEZ         CLOUDY    35  32  88 E8        29.85R WCI  29
PAGE, AZ       LGT RAIN  47  43  86 N8        29.82S
GRAND CANYON   CLOUDY    38  36  92 SW7       29.88R FOG     WCI  33
KINGMAN        CLOUDY    51  43  74 S6        29.85F
FLAGSTAFF      CLOUDY    35  33  92 SW6       29.88R WCI  30

$$

REGIONAL REPORTS    NEVADA/IDAHO/WYOMING

CITY           SKY/WX    TMP DP  RH WIND       PRES   REMARKS
LAS VEGAS, NV  MOCLDY    57  49  74 CALM      29.80R
ELY            PTCLDY    39  32  76 W7        29.91S WCI  34
ELKO           CLOUDY    46  37  71 SW5       29.93R
POCATELLO, ID  PTCLDY    42  31  64 NW5       29.88R
BURLEY         CLOUDY    46  40  79 CALM      29.86S
EVANSTON, WY   FLURRIES  31  27  85 NE15      29.92S WCI  20
ROCK SPRINGS   CLOUDY    31  26  82 NE17      29.96F WCI  19

$$




USA.gov is the U.S. government's official web portal to all federal, state and local government web resources and services.